This demonstration page uses our WeatherBlox Daily Observations layout. Learn more.

Hourly Observations for March 17, 2016

Temp ( °F °C ) Dew Point ( °F °C ) Humidity (%) Winds ( mph kmh ) Pressure ( in mb ) Visibility ( mi km ) Precip ( " mm )
12:15 am 00:15 Clear 63 17 32 0 32 32 N 14 22 29.83 1010 10 16.09344 0 0
12:35 am 00:35 Clear 63 17 36 2 37 37 NNW 16 26 29.83 1010 10 16.09344 0 0
12:55 am 00:55 Clear 63 17 36 2 37 37 NNW 17 28 29.85 1011 10 16.09344 0 0
1:15 am 01:15 Clear 61 16 36 2 39 39 NNW 16 26 29.85 1011 10 16.09344 0 0
1:35 am 01:35 Clear 61 16 34 1 36 36 NNW 13 20 29.85 1011 10 16.09344 0 0
1:55 am 01:55 Clear 59 15 34 1 39 39 NNW 13 20 29.88 1012 10 16.09344 0 0
2:15 am 02:15 Clear 59 15 34 1 39 39 NNW 12 19 29.88 1012 10 16.09344 0 0
2:35 am 02:35 Clear 57 14 34 1 41 41 NNW 10 17 29.88 1012 10 16.09344 0 0
2:55 am 02:55 Clear 59 15 34 1 39 39 NNW 9 15 29.88 1012 10 16.09344 0 0
3:15 am 03:15 Clear 54 12 34 1 47 47 WNW 3 6 29.91 1013 10 16.09344 0 0
3:35 am 03:35 Clear 55 13 36 2 47 47 NW 5 7 29.91 1013 10 16.09344 0 0
3:55 am 03:55 Clear 54 12 36 2 51 51 WNW 3 6 29.91 1013 10 16.09344 0 0
4:15 am 04:15 Clear 52 11 36 2 54 54 W 3 6 29.91 1013 10 16.09344 0 0
4:35 am 04:35 Clear 52 11 36 2 54 54 Calm 29.91 1013 10 16.09344 0 0
4:55 am 04:55 Clear 52 11 36 2 54 54 Calm 29.91 1013 10 16.09344 0 0
5:15 am 05:15 Clear 46 8 37 3 71 71 W 3 6 29.94 1014 10 16.09344 0 0
5:35 am 05:35 Clear 46 8 39 4 76 76 W 5 7 29.94 1014 10 16.09344 0 0
5:55 am 05:55 Clear 45 7 37 3 76 76 W 5 7 29.94 1014 10 16.09344 0 0
6:15 am 06:15 Clear 45 7 37 3 76 76 NW 6 9 29.94 1014 10 16.09344 0 0
6:35 am 06:35 Clear 45 7 37 3 76 76 W 5 7 29.94 1014 10 16.09344 0 0
6:55 am 06:55 Clear 45 7 37 3 76 76 W 5 7 29.94 1014 10 16.09344 0 0
7:15 am 07:15 Clear 43 6 37 3 81 81 WSW 5 7 29.94 1014 10 16.09344 0 0
7:35 am 07:35 Sunny 43 6 37 3 81 81 WSW 5 7 29.97 1015 10 16.09344 0 0
7:55 am 07:55 Sunny 45 7 37 3 76 76 WSW 5 7 29.94 1014 10 16.09344 0 0
8:15 am 08:15 Sunny 48 9 37 3 66 66 W 5 7 29.94 1014 10 16.09344 0 0
8:35 am 08:35 Sunny 52 11 39 4 62 62 WSW 5 7 29.94 1014 10 16.09344 0 0
8:55 am 08:55 Mostly Cloudy 55 13 41 5 59 59 WSW 5 7 29.94 1014 10 16.09344 0 0
9:15 am 09:15 Cloudy 59 15 39 4 48 48 WSW 6 9 29.94 1014 10 16.09344 0 0
9:35 am 09:35 Cloudy 59 15 37 3 45 45 SW 6 9 29.94 1014 10 16.09344 0 0
9:55 am 09:55 Cloudy 63 17 39 4 42 42 SW 7 11 29.94 1014 10 16.09344 0 0
10:15 am 10:15 Cloudy 64 18 37 3 37 37 SW 3 6 29.94 1014 10 16.09344 0 0
10:35 am 10:35 Mostly Cloudy 64 18 37 3 37 37 WNW 9 15 29.91 1013 10 16.09344 0 0
10:55 am 10:55 Mostly Cloudy 64 18 36 2 34 34 WSW 9 15 29.91 1013 10 16.09344 0 0
11:15 am 11:15 Cloudy 64 18 37 3 37 37 NW 13 20 29.91 1013 10 16.09344 0 0
11:35 am 11:35 Cloudy 63 17 37 3 39 39 NW 13 20 29.91 1013 10 16.09344 0 0
11:55 am 11:55 Cloudy 63 17 37 3 39 39 NW 13 20 29.91 1013 10 16.09344 0 0
12:15 pm 12:15 Cloudy 63 17 37 3 39 39 NW 12 19 29.91 1013 10 16.09344 0 0
12:35 pm 12:35 Cloudy 63 17 37 3 39 39 WNW 9 15 29.88 1012 10 16.09344 0 0
12:55 pm 12:55 Cloudy 63 17 39 4 42 42 WNW 7 11 29.88 1012 10 16.09344 0 0
1:15 pm 13:15 Mostly Cloudy 64 18 37 3 37 37 W 8 13 29.88 1012 10 16.09344 0 0
1:35 pm 13:35 Partly Cloudy 66 19 39 4 37 37 W 17 28 29.85 1011 10 16.09344 0 0
1:55 pm 13:55 Partly Cloudy 66 19 37 3 35 35 SW 9 15 29.85 1011 10 16.09344 0 0
2:15 pm 14:15 Partly Cloudy 68 20 37 3 33 33 WSW 15 24 29.83 1010 10 16.09344 0 0
2:35 pm 14:35 Mostly Cloudy 68 20 39 4 35 35 WSW 14 22 29.83 1010 10 16.09344 0 0
2:55 pm 14:55 Cloudy 64 18 37 3 37 37 W 21 33 29.83 1010 10 16.09344 0 0
3:15 pm 15:15 Cloudy 64 18 37 3 37 37 NW 17 28 29.83 1010 10 16.09344 0 0
3:35 pm 15:35 Cloudy 61 16 37 3 42 42 N 15 24 29.83 1010 10 16.09344 0 0
3:55 pm 15:55 Cloudy 63 17 37 3 39 39 N 13 20 29.83 1010 10 16.09344 0 0
4:15 pm 16:15 Cloudy 63 17 37 3 39 39 N 6 9 29.83 1010 10 16.09344 0 0
4:35 pm 16:35 Cloudy 63 17 36 2 37 37 NNW 10 17 29.83 1010 10 16.09344 0 0
4:55 pm 16:55 Mostly Cloudy 63 17 37 3 39 39 NNW 8 13 29.83 1010 10 16.09344 0 0
5:15 pm 17:15 Mostly Cloudy 63 17 36 2 37 37 NNW 9 15 29.83 1010 10 16.09344 0 0
5:35 pm 17:35 Cloudy 63 17 36 2 37 37 NNW 10 17 29.83 1010 10 16.09344 0 0
5:55 pm 17:55 Cloudy 64 18 36 2 34 34 NNW 17 28 29.83 1010 10 16.09344 0 0
6:15 pm 18:15 Partly Cloudy 63 17 34 1 34 34 NW 20 31 29.83 1010 10 16.09344 0 0
6:35 pm 18:35 Partly Cloudy 63 17 34 1 34 34 NNW 15 24 29.83 1010 10 16.09344 0 0
6:55 pm 18:55 Partly Cloudy 61 16 34 1 36 36 NW 14 22 29.85 1011 10 16.09344 0 0
7:15 pm 19:15 Partly Cloudy 61 16 32 0 34 34 NW 12 19 29.85 1011 10 16.09344 0 0
7:35 pm 19:35 Partly Cloudy 59 15 34 1 39 39 NW 12 19 29.85 1011 10 16.09344 0 0
7:55 pm 19:55 Clear 57 14 32 0 39 39 NW 12 19 29.88 1012 10 16.09344 0 0
8:15 pm 20:15 Partly Cloudy 57 14 32 0 39 39 NW 14 22 29.88 1012 10 16.09344 0 0
8:35 pm 20:35 Partly Cloudy 57 14 32 0 39 39 NW 12 19 29.88 1012 10 16.09344 0 0
8:55 pm 20:55 Clear 57 14 32 0 39 39 NW 15 24 29.91 1013 10 16.09344 0 0
9:15 pm 21:15 Mostly Cloudy 57 14 32 0 39 39 NW 15 24 29.91 1013 10 16.09344 0 0
9:35 pm 21:35 Cloudy 55 13 32 0 41 41 NW 14 22 29.91 1013 10 16.09344 0 0
9:55 pm 21:55 Partly Cloudy 55 13 32 0 41 41 NW 13 20 29.91 1013 10 16.09344 0 0
10:15 pm 22:15 Clear 54 12 32 0 44 44 NW 13 20 29.91 1013 10 16.09344 0 0
10:35 pm 22:35 Clear 54 12 32 0 44 44 WNW 10 17 29.91 1013 10 16.09344 0 0
10:55 pm 22:55 Clear 52 11 34 1 50 50 WNW 10 17 29.91 1013 10 16.09344 0 0
11:15 pm 23:15 Partly Cloudy 54 12 32 0 44 44 WNW 13 20 29.91 1013 10 16.09344 0 0
11:35 pm 23:35 Clear 52 11 32 0 47 47 WNW 10 17 29.91 1013 10 16.09344 0 0
11:55 pm 23:55 Partly Cloudy 52 11 32 0 47 47 W 8 13 29.91 1013 10 16.09344 0 0

Powered by AerisWeather